This is the latest recevied weather packets stored in our database for station/object DL1BWU. If no packets are shown the sender has not sent any weather packets the latest 10 day(s).
| Time | Temp. | Humidity | Pressure | Rain* | Wind** | Luminosity | Snow |
|---|---|---|---|---|---|---|---|
| 1777607721 | 4.44° C | 68% | 1029.9 hPa | 0 mm | - | - | - |
| 1777607121 | 4.44° C | 68% | 1029.9 hPa | 0 mm | - | - | - |
| 1777606521 | 4.44° C | 68% | 1029.9 hPa | 0 mm | - | - | - |
| 1777605921 | 4.44° C | 67% | 1029.8 hPa | 0 mm | - | - | - |
| 1777605321 | 5° C | 67% | 1029.8 hPa | 0 mm | - | - | - |
| 1777604721 | 5° C | 67% | 1029.8 hPa | 0 mm | - | - | - |
| 1777604121 | 5° C | 67% | 1029.8 hPa | 0 mm | - | - | - |
| 1777603521 | 5° C | 67% | 1029.8 hPa | 0 mm | - | - | - |
| 1777602921 | 5° C | 67% | 1029.8 hPa | 0 mm | - | - | - |
| 1777602321 | 5° C | 66% | 1029.8 hPa | 0 mm | - | - | - |
| 1777601721 | 5.56° C | 66% | 1029.8 hPa | 0 mm | - | - | - |
| 1777584321 | 9.44° C | 58% | 1029.9 hPa | 0 mm | - | - | - |
| 1777583722 | 9.44° C | 57% | 1029.7 hPa | 0 mm | - | - | - |
| 1777581922 | 10° C | 56% | 1029.7 hPa | 0 mm | - | - | - |
| 1777581322 | 10.56° C | 55% | 1029.7 hPa | 0 mm | - | - | - |
| 1777580722 | 10.56° C | 55% | 1029.7 hPa | 0 mm | - | - | - |
| 1777580122 | 11.11° C | 54% | 1029.7 hPa | 0 mm | - | - | - |
| 1777579522 | 11.11° C | 54% | 1029.6 hPa | 0 mm | - | - | - |
| 1777578922 | 11.11° C | 54% | 1029.6 hPa | 0 mm | - | - | - |
| 1777577722 | 11.67° C | 53% | 1029.7 hPa | 0 mm | - | - | - |
| 1777577122 | 12.78° C | 51% | 1029.4 hPa | 0 mm | - | - | - |
| 1777576522 | 12.78° C | 50% | 1029.4 hPa | 0 mm | - | - | - |
| 1777575922 | 13.33° C | 50% | 1029.3 hPa | 0 mm | - | - | - |
| 1777575322 | 13.33° C | 49% | 1029.3 hPa | 0 mm | - | - | - |
| 1777574722 | 13.89° C | 48% | 1029.2 hPa | 0 mm | - | - | - |
* Rain latest hour (hover to see other rain measurements)
** Current wind speed in m/s (hover to see current wind gust speed)